Orbital Elements at Epoch 2459200.5 (2020-Dec-17.0) TDB
Reference: JPL 21 (heliocentric ecliptic J2000)
Element | Value | Uncertainty (1-sigma) | Units |
e | .1911419939822908 | 4.1386e-08 | |
a | 2.264468099953663 | 9.0963e-09 | au |
q | 1.83163315201923 | 9.4727e-08 | au |
i | 8.029071389773858 | 4.4439e-06 | deg |
node | 180.0421027499092 | 2.7033e-05 | deg |
peri | 1.927605075996733 | 2.895e-05 | deg |
M | 242.6610807235961 | 1.2039e-05 | deg |
tp | 2459606.183477795605 (2022-Jan-26.68347780) | 4.3242e-05 | TDB |
period | 1244.651415805112 3.41 | 7.4996e-06 2.053e-08 | d yr |
n | .2892376093648127 | 1.7428e-09 | deg/d |
Q | 2.697303047888095 | 1.0835e-08 | au |
|
| | Orbit Determination Parameters
Additional Information
|